Powrót do katalogu

NOAA 16 DEB

AktywnySSO
NORAD 41409·DEBRIS·🇺🇸 United States

Wystrzelony Sep 21, 2000 z Vandenberg Space Force Base

Loading…

Następne Przeloty (najbliższe 24 godziny)

TLE

ŚwieżeSource: Space-Track

Epoka: Sep 12, 2026, 11:45 UTC

1 41409U 00055KN  26255.49001263  .00004108  00000-0  11939-2 0  9991
2 41409  98.6386 344.3327 0022418 298.5889  61.3046 14.44692437548575

Śledź NOAA 16 DEB w czasie rzeczywistym z AllMySat

Download on the App Store